When you browse on this site, cookies collect data to enhance your experience and personalize the content and advertising you see.
Visit our Privacy Policy to learn more. By continuing to use the site, you agree to this use of cookies and data.
  • In Sweden
  • List of Countries
  • For 7 days
  • Water Temperature
  • Satellite Maps
  • Weather Map
  • Weather Widgets
  • user-avatar
    Login

    Hourly Weather Kucow

    Today, 27 May, Monday

    Time Temperature Precipitation Wind Pressure Humidity
    00:00 +14°C° 0 mm 3 mps 740 mmHg 87%
    01:00 +13°C° 0 mm 3 mps 740 mmHg 88%
    02:00 +13°C° 0 mm 3 mps 740 mmHg 89%
    03:00 +13°C° 0 mm 3 mps 740 mmHg 91%
    04:00 +13°C° 0 mm 3 mps 740 mmHg 92%
    05:00 +14°C° 0 mm 4 mps 740 mmHg 86%
    06:00 +17°C° 0 mm 4 mps 740 mmHg 80%
    07:00 +19°C° 0 mm 5 mps 740 mmHg 75%
    08:00 +20°C° 0 mm 5 mps 740 mmHg 68%
    09:00 +22°C° 0 mm 5 mps 740 mmHg 62%
    10:00 +23°C° 0 mm 5 mps 740 mmHg 55%
    11:00 +25°C° 0.3 mm 5 mps 739 mmHg 55%
    12:00 +25°C° 0.3 mm 4 mps 739 mmHg 55%
    13:00 +25°C° 0.3 mm 4 mps 739 mmHg 55%
    14:00 +25°C° 0.8 mm 4 mps 738 mmHg 57%
    15:00 +25°C° 0.8 mm 3 mps 738 mmHg 60%
    16:00 +25°C° 0.8 mm 3 mps 738 mmHg 62%
    17:00 +23°C° 0.5 mm 2 mps 738 mmHg 67%
    18:00 +21°C° 0.5 mm 2 mps 738 mmHg 72%
    19:00 +21°C° 0.5 mm 1 mps 737 mmHg 76%
    20:00 +20°C° 0.2 mm 1 mps 737 mmHg 80%
    21:00 +18°C° 0.2 mm 2 mps 737 mmHg 83%
    22:00 +17°C° 0.2 mm 2 mps 737 mmHg 86%
    23:00 +17°C° 0.3 mm 2 mps 736 mmHg 88%

    Tomorrow, 28 May, Tuesday

    Time Temperature Precipitation Wind Pressure Humidity
    00:00 +17°C° 0.3 mm 2 mps 736 mmHg 90%
    01:00 +17°C° 0.3 mm 2 mps 736 mmHg 91%
    02:00 +17°C° 2.2 mm 2 mps 735 mmHg 92%
    03:00 +17°C° 2.2 mm 3 mps 735 mmHg 93%
    04:00 +17°C° 2.2 mm 3 mps 735 mmHg 94%
    05:00 +17°C° 0 mm 4 mps 735 mmHg 89%
    06:00 +17°C° 0 mm 5 mps 734 mmHg 85%
    07:00 +17°C° 0 mm 6 mps 734 mmHg 80%
    08:00 +19°C° 0 mm 6 mps 734 mmHg 79%
    09:00 +19°C° 0 mm 5 mps 734 mmHg 78%
    10:00 +19°C° 0 mm 5 mps 734 mmHg 77%
    11:00 +20°C° 0.2 mm 5 mps 734 mmHg 74%
    12:00 +21°C° 0.2 mm 4 mps 734 mmHg 70%
    13:00 +22°C° 0.2 mm 4 mps 734 mmHg 67%
    14:00 +22°C° 1 mm 4 mps 734 mmHg 70%
    15:00 +21°C° 1 mm 4 mps 734 mmHg 72%
    16:00 +21°C° 1 mm 3 mps 734 mmHg 74%
    17:00 +20°C° 1.5 mm 3 mps 734 mmHg 79%
    18:00 +18°C° 1.5 mm 3 mps 735 mmHg 85%
    19:00 +17°C° 1.5 mm 3 mps 735 mmHg 90%
    20:00 +15°C° 0.8 mm 4 mps 735 mmHg 91%
    21:00 +14°C° 0.8 mm 5 mps 736 mmHg 93%
    22:00 +12°C° 0.8 mm 7 mps 737 mmHg 94%
    23:00 +11°C° 0.8 mm 6 mps 737 mmHg 94%

    Day after tomorrow, 29 May, Wednesday

    Time Temperature Precipitation Wind Pressure Humidity
    00:00 +11°C° 0.8 mm 6 mps 737 mmHg 94%
    01:00 +10°C° 0.8 mm 6 mps 738 mmHg 94%
    02:00 +10°C° 0.9 mm 6 mps 738 mmHg 93%
    03:00 +9°C° 0.9 mm 6 mps 739 mmHg 92%
    04:00 +8°C° 0.9 mm 6 mps 740 mmHg 91%
    05:00 +8°C° 0.1 mm 5 mps 740 mmHg 89%
    06:00 +8°C° 0.1 mm 5 mps 741 mmHg 87%
    07:00 +9°C° 0.1 mm 5 mps 742 mmHg 85%
    08:00 +10°C° 0 mm 5 mps 742 mmHg 80%
    09:00 +12°C° 0 mm 5 mps 743 mmHg 74%
    10:00 +14°C° 0 mm 5 mps 743 mmHg 69%
    11:00 +14°C° 0 mm 5 mps 743 mmHg 66%
    12:00 +15°C° 0 mm 5 mps 744 mmHg 63%
    13:00 +16°C° 0 mm 5 mps 744 mmHg 60%
    14:00 +17°C° 0 mm 4 mps 744 mmHg 60%
    15:00 +17°C° 0 mm 4 mps 744 mmHg 59%
    16:00 +17°C° 0 mm 4 mps 744 mmHg 59%
    17:00 +15°C° 0 mm 4 mps 744 mmHg 65%
    18:00 +14°C° 0 mm 3 mps 744 mmHg 70%
    19:00 +13°C° 0 mm 3 mps 744 mmHg 75%
    20:00 +12°C° 0 mm 3 mps 745 mmHg 77%
    21:00 +12°C° 0 mm 2 mps 745 mmHg 79%
    22:00 +10°C° 0 mm 2 mps 746 mmHg 81%
    23:00 +10°C° 0 mm 2 mps 746 mmHg 81%

    30 May, Thursday

    Time Temperature Precipitation Wind Pressure Humidity
    00:00 +9°C° 0 mm 2 mps 746 mmHg 81%
    01:00 +9°C° 0 mm 2 mps 746 mmHg 81%
    02:00 +8°C° 0 mm 2 mps 746 mmHg 81%
    03:00 +8°C° 0 mm 2 mps 746 mmHg 81%
    04:00 +7°C° 0 mm 2 mps 746 mmHg 80%
    05:00 +8°C° 0 mm 2 mps 746 mmHg 77%
    06:00 +10°C° 0 mm 2 mps 747 mmHg 73%
    07:00 +12°C° 0 mm 1 mps 747 mmHg 69%
    08:00 +12°C° 0.1 mm 1 mps 747 mmHg 68%
    09:00 +13°C° 0.1 mm 1 mps 747 mmHg 66%
    10:00 +13°C° 0.1 mm 1 mps 747 mmHg 65%
    11:00 +14°C° 0 mm 1 mps 747 mmHg 59%
    12:00 +16°C° 0 mm 1 mps 747 mmHg 54%
    13:00 +18°C° 0 mm 1 mps 747 mmHg 49%
    14:00 +19°C° 0 mm 1 mps 747 mmHg 48%
    15:00 +19°C° 0 mm 1 mps 746 mmHg 46%
    16:00 +20°C° 0 mm 1 mps 746 mmHg 45%
    17:00 +18°C° 0 mm 1 mps 746 mmHg 51%
    18:00 +16°C° 0 mm 1 mps 746 mmHg 56%
    19:00 +15°C° 0 mm 1 mps 746 mmHg 61%
    20:00 +14°C° 0 mm 1 mps 747 mmHg 61%
    21:00 +13°C° 0 mm 1 mps 747 mmHg 60%
    22:00 +12°C° 0 mm 1 mps 747 mmHg 59%
    23:00 +12°C° 0 mm 1 mps 746 mmHg 60%

    31 May, Friday

    Time Temperature Precipitation Wind Pressure Humidity
    00:00 +11°C° 0 mm 1 mps 746 mmHg 61%
    01:00 +11°C° 0 mm 1 mps 746 mmHg 62%
    02:00 +11°C° 0 mm 1 mps 746 mmHg 66%
    03:00 +10°C° 0 mm 1 mps 746 mmHg 70%
    04:00 +10°C° 0 mm 1 mps 746 mmHg 74%
    05:00 +12°C° 0 mm 1 mps 746 mmHg 71%
    06:00 +14°C° 0 mm 1 mps 746 mmHg 69%
    07:00 +15°C° 0 mm 1 mps 745 mmHg 66%
    08:00 +18°C° 0 mm 1 mps 745 mmHg 62%
    09:00 +20°C° 0 mm 1 mps 745 mmHg 57%
    10:00 +21°C° 0 mm 1 mps 745 mmHg 52%
    11:00 +22°C° 0 mm 1 mps 744 mmHg 51%
    12:00 +21°C° 0 mm 0 mps 744 mmHg 49%
    13:00 +22°C° 0 mm 0 mps 743 mmHg 47%
    14:00 +24°C° 0.1 mm 1 mps 743 mmHg 49%
    15:00 +24°C° 0.1 mm 1 mps 743 mmHg 52%
    16:00 +23°C° 0.1 mm 2 mps 743 mmHg 54%
    17:00 +21°C° 0.7 mm 2 mps 743 mmHg 65%
    18:00 +19°C° 0.7 mm 3 mps 743 mmHg 75%
    19:00 +18°C° 0.7 mm 4 mps 743 mmHg 86%
    20:00 +17°C° 0.9 mm 4 mps 743 mmHg 89%
    21:00 +15°C° 0.9 mm 5 mps 744 mmHg 91%
    22:00 +15°C° 0.9 mm 5 mps 744 mmHg 93%
    23:00 +14°C° 0.9 mm 6 mps 744 mmHg 94%

    1 June, Saturday

    Time Temperature Precipitation Wind Pressure Humidity
    00:00 +14°C° 0.9 mm 6 mps 744 mmHg 94%
    01:00 +12°C° 0.9 mm 7 mps 745 mmHg 94%
    02:00 +12°C° 0.7 mm 7 mps 745 mmHg 94%
    03:00 +11°C° 0.7 mm 7 mps 745 mmHg 94%
    04:00 +10°C° 0.7 mm 7 mps 746 mmHg 94%
    05:00 +10°C° 0.1 mm 7 mps 746 mmHg 93%
    06:00 +10°C° 0.1 mm 7 mps 746 mmHg 93%
    07:00 +10°C° 0.1 mm 7 mps 747 mmHg 92%
    08:00 +10°C° 0 mm 7 mps 747 mmHg 91%
    09:00 +10°C° 0 mm 6 mps 748 mmHg 90%
    10:00 +10°C° 0 mm 6 mps 748 mmHg 89%
    11:00 +11°C° 0 mm 7 mps 748 mmHg 82%
    12:00 +12°C° 0 mm 7 mps 748 mmHg 75%
    13:00 +15°C° 0 mm 7 mps 748 mmHg 68%
    14:00 +15°C° 0 mm 7 mps 748 mmHg 65%
    15:00 +16°C° 0 mm 7 mps 748 mmHg 61%
    16:00 +16°C° 0 mm 7 mps 749 mmHg 58%
    17:00 +15°C° 0 mm 6 mps 749 mmHg 61%
    18:00 +14°C° 0 mm 5 mps 749 mmHg 65%
    19:00 +12°C° 0 mm 4 mps 749 mmHg 68%
    20:00 +11°C° 0 mm 4 mps 749 mmHg 66%
    21:00 +9°C° 0 mm 5 mps 750 mmHg 63%
    22:00 +8°C° 0 mm 5 mps 750 mmHg 61%
    23:00 +8°C° 0 mm 5 mps 750 mmHg 63%
    Show more